Weather History for PABL - January, 2014

Change the Weather History Date:

Friday, January 17, 2014

  Actual Average (PASK) Record (PASK)
Temperature  
Mean Temperature -2 °F -  
Max Temperature 17 °F 2 °F 37 °F (2009)
Min Temperature -22 °F -6 °F -34 °F (2006)
Degree Days  
Heating Degree Days 68    
Moisture  
Dew Point -4 °F    
Average Humidity 79    
Maximum Humidity 100    
Minimum Humidity 51    
Precipitation  
Precipitation 0.01 in - - ()
Sea Level Pressure  
Sea Level Pressure 29.46 in    
Wind  
Wind Speed 8 mph (NNE)    
Max Wind Speed 28 mph    
Max Gust Speed 36 mph    
Visibility 8 miles    
Events      
Averages and records for this station are not official NWS values.
T = Trace of Precipitation, MM = Missing Value Source: NWS Daily Summary

Daily Weather History Graph

Daily Weather History Graph

Search for Another Location

Airport or City:

Trip Planner

Search our weather history database for the weather conditions in past years. The results will help you decide how hot, cold, wet, or windy it might be!

Date:

Astronomy

Jan. 17, 2014 Rise Set
Actual Time 11:29 AM AKST 4:20 PM AKST
Civil Twilight 10:13 AM AKST 5:36 PM AKST
Nautical Twilight 9:04 AM AKST 6:45 PM AKST
Astronomical Twilight 8:02 AM AKST 7:47 PM AKST
Moon 7:40 PM AKST (1/17) 10:48 AM AKST (1/17)
Length of Visible Light 7h 22m
Length of Day
4h 50m
Full, 98% of the Moon is Illuminated
Jan 17
Full
Jan 23
Last Quarter
Jan 30
New
Feb 6
First Quarter
Feb 14
Full

Hourly Weather History & Observations

Time (AKST) Temp. Windchill Dew Point Humidity Pressure Visibility Wind Dir Wind Speed Gust Speed Precip Events Conditions
12:16 AM -18.4 °F -33.4 °F -27.4 °F 63% 29.95 in 10.0 mi WNW 5.8 mph - N/A   Clear
12:36 AM -18.4 °F -36.6 °F -25.6 °F 70% 29.95 in 10.0 mi NW 8.1 mph - N/A   Clear
12:56 AM -18.4 °F -31.4 °F -23.8 °F 76% 29.96 in 10.0 mi NW 4.6 mph - N/A   Clear
1:16 AM -18.4 °F -33.4 °F -25.6 °F 70% 29.94 in 10.0 mi NW 5.8 mph - N/A   Clear
1:36 AM -20.2 °F -35.5 °F -27.4 °F 69% 29.94 in 10.0 mi NNW 5.8 mph - N/A   Clear
1:56 AM -18.4 °F -31.4 °F -25.6 °F 70% 29.93 in 10.0 mi NNW 4.6 mph - N/A   Clear
2:16 AM -18.4 °F -35.1 °F -23.8 °F 76% 29.92 in 10.0 mi NNW 6.9 mph - N/A   Clear
2:36 AM -20.2 °F -33.5 °F -29.2 °F 63% 29.90 in 10.0 mi NW 4.6 mph - N/A   Clear
2:56 AM -18.4 °F -35.1 °F -18.4 °F 100% 29.90 in 10.0 mi NW 6.9 mph - N/A   Clear
3:16 AM -16.6 °F -32.9 °F - N/A% 29.88 in 10.0 mi NW 6.9 mph - N/A   Clear
3:36 AM -16.6 °F -32.9 °F -22.0 °F 76% 29.88 in 10.0 mi NNW 6.9 mph - N/A   Clear
3:56 AM -16.6 °F -32.9 °F -23.8 °F 70% 29.86 in 10.0 mi NNW 6.9 mph - N/A   Clear
4:16 AM -16.6 °F -32.9 °F -23.8 °F 70% 29.85 in 10.0 mi NW 6.9 mph - N/A   Clear
4:36 AM -20.2 °F - - N/A% 29.83 in 10.0 mi Calm Calm - N/A   Clear
4:56 AM -22.0 °F - - N/A% 29.81 in 10.0 mi Calm Calm - N/A   Clear
5:16 AM -20.2 °F - -27.4 °F 69% 29.80 in 10.0 mi Calm Calm - N/A   Clear
5:36 AM -20.2 °F - -23.8 °F 83% 29.78 in 10.0 mi Calm Calm - N/A   Clear
5:56 AM -18.4 °F - -25.6 °F 70% 29.77 in 10.0 mi Calm Calm - N/A   Clear
6:16 AM -18.4 °F - -25.6 °F 70% 29.75 in 10.0 mi Calm Calm - N/A   Clear
6:36 AM -16.6 °F - -18.4 °F 92% 29.73 in 10.0 mi Calm Calm - N/A   Clear
6:56 AM -13.0 °F -28.6 °F -23.8 °F 59% 29.70 in 10.0 mi NW 6.9 mph - N/A   Clear
7:16 AM -7.6 °F -20.6 °F -16.6 °F 65% 29.68 in 10.0 mi North 5.8 mph - N/A   Clear
7:36 AM -2.2 °F -10.4 °F -7.6 °F 78% 29.67 in 10.0 mi East 3.5 mph - N/A   Clear
7:56 AM -2.2 °F -14.2 °F -7.6 °F 78% 29.65 in 10.0 mi North 5.8 mph - N/A   Clear
8:16 AM -0.4 °F -16.7 °F -0.4 °F 100% 29.63 in 10.0 mi NNW 10.4 mph - N/A   Clear
8:36 AM -0.4 °F -16.7 °F -4.0 °F 85% 29.62 in 10.0 mi NNW 10.4 mph - N/A   Clear
8:56 AM -0.4 °F -8.3 °F -14.8 °F 51% 29.60 in 10.0 mi NNW 3.5 mph - N/A   Clear
9:16 AM 1.4 °F -6.2 °F -5.8 °F 72% 29.59 in 10.0 mi North 3.5 mph - N/A   Clear
9:36 AM 1.4 °F - -0.4 °F 92% 29.57 in 10.0 mi Calm Calm - N/A   Scattered Clouds
9:56 AM 3.2 °F - 1.4 °F 92% 29.56 in 10.0 mi Calm Calm - N/A   Mostly Cloudy
10:16 AM 3.2 °F -4.2 °F -5.8 °F 66% 29.55 in 10.0 mi North 3.5 mph - N/A   Overcast
10:36 AM 3.2 °F -9.1 °F -5.8 °F 66% 29.53 in 10.0 mi NNW 6.9 mph - N/A   Overcast
10:56 AM 3.2 °F - -2.2 °F 78% 29.51 in 10.0 mi Calm Calm - N/A   Overcast
11:16 AM 3.2 °F -12.2 °F 3.2 °F 100% 29.48 in 10.0 mi NNW 10.4 mph 20.7 mph N/A   Overcast
11:36 AM 6.8 °F -11.3 °F -4.0 °F 61% 29.45 in 10.0 mi NE 16.1 mph - N/A   Overcast
11:56 AM 6.8 °F -10.7 °F -7.6 °F 52% 29.43 in 10.0 mi NNE 15.0 mph 26.5 mph N/A   Overcast
12:16 PM 6.8 °F -8.6 °F -0.4 °F 72% 29.43 in 10.0 mi NW 11.5 mph 17.3 mph N/A   Overcast
12:36 PM 8.6 °F -7.7 °F 8.6 °F 100% 29.40 in 10.0 mi NNE 13.8 mph 19.6 mph N/A   Overcast
12:56 PM 5.0 °F -10.8 °F -5.8 °F 61% 29.38 in 2.5 mi WNW 11.5 mph - N/A   Overcast
1:16 PM 6.8 °F -11.3 °F -0.4 °F 72% 29.36 in 1.2 mi NW 16.1 mph - N/A   Overcast
1:36 PM 8.6 °F -8.3 °F 6.8 °F 92% 29.35 in 0.5 mi NNE 15.0 mph 20.7 mph N/A   Overcast
1:56 PM 8.6 °F -3.7 °F 5.0 °F 85% 29.34 in 0.5 mi North 8.1 mph - N/A   Overcast
2:16 PM 10.4 °F 4.0 °F 8.6 °F 92% 29.32 in 0.5 mi NW 3.5 mph - N/A   Overcast
2:36 PM 8.6 °F -5.5 °F 6.8 °F 92% 29.31 in 0.5 mi North 10.4 mph - N/A   Overcast
2:56 PM 8.6 °F - 6.8 °F 92% 29.30 in 0.5 mi Calm Calm - N/A   Overcast
3:16 PM 8.6 °F -11.9 °F 3.2 °F 79% 29.27 in 0.2 mi East 23.0 mph 31.1 mph 0.01 in   Overcast
3:36 PM - - - N/A% 29.24 in 0.2 mi ENE 27.6 mph 35.7 mph 0.01 in   Overcast
3:56 PM 8.6 °F -10.5 °F 5.0 °F 85% 29.24 in 0.2 mi East 19.6 mph 31.1 mph 0.01 in   Overcast
4:16 PM 8.6 °F -12.7 °F 6.8 °F 92% 29.22 in 0.2 mi ENE 25.3 mph 32.2 mph N/A   Overcast
4:36 PM 10.4 °F -10.3 °F 6.8 °F 85% 29.21 in 0.2 mi ENE 25.3 mph 33.4 mph N/A   Overcast
4:56 PM 10.4 °F -10.3 °F 6.8 °F 85% 29.21 in 0.2 mi ENE 25.3 mph 32.2 mph N/A   Overcast
5:16 PM - - - N/A% 29.19 in 0.8 mi ENE 25.3 mph 31.1 mph N/A   Overcast
5:36 PM 10.4 °F -8.2 °F 6.8 °F 85% 29.19 in 1.2 mi ENE 19.6 mph 28.8 mph N/A   Overcast
5:56 PM 10.4 °F -7.2 °F 6.8 °F 85% 29.17 in 0.8 mi NE 17.3 mph 24.2 mph N/A   Overcast
6:16 PM 10.4 °F -4.8 °F 8.6 °F 92% 29.16 in 2.0 mi ENE 12.7 mph - N/A   Overcast
6:36 PM 10.4 °F -4.1 °F 8.6 °F 92% 29.15 in 6.0 mi ENE 11.5 mph - N/A   Overcast
6:56 PM 12.2 °F 1.7 °F 6.8 °F 79% 29.14 in 10.0 mi ENE 6.9 mph - N/A   Overcast
7:16 PM 12.2 °F 2.9 °F 6.8 °F 79% 29.13 in 10.0 mi East 5.8 mph - N/A   Overcast
7:36 PM 12.2 °F 1.7 °F 6.8 °F 79% 29.11 in 10.0 mi NE 6.9 mph - N/A   Overcast
7:56 PM 12.2 °F 4.3 °F 8.6 °F 85% 29.11 in 10.0 mi NE 4.6 mph - N/A   Overcast
8:16 PM 12.2 °F - 8.6 °F 85% 29.10 in 10.0 mi Calm Calm - N/A   Overcast
8:36 PM 14.0 °F 2.9 °F 10.4 °F 86% 29.09 in 10.0 mi SSE 8.1 mph - N/A   Overcast
8:56 PM 17.6 °F 2.2 °F 10.4 °F 73% 29.08 in 10.0 mi SE 17.3 mph 20.7 mph N/A   Mostly Cloudy
9:16 PM 17.6 °F 2.7 °F 12.2 °F 79% 29.07 in 10.0 mi SE 16.1 mph - N/A   Overcast
9:36 PM 15.8 °F 2.1 °F 10.4 °F 79% 29.07 in 10.0 mi SSE 12.7 mph - N/A   Mostly Cloudy
9:56 PM 15.8 °F 1.4 °F 10.4 °F 79% 29.06 in 10.0 mi SSE 13.8 mph - N/A   Scattered Clouds
10:16 PM 15.8 °F 0.3 °F 10.4 °F 79% 29.06 in 10.0 mi SSE 16.1 mph - N/A   Mostly Cloudy
10:36 PM 15.8 °F 0.9 °F 10.4 °F 79% 29.06 in 10.0 mi SSE 15.0 mph - N/A   Partly Cloudy
10:56 PM 12.2 °F -4.3 °F 8.6 °F 85% 29.05 in 10.0 mi SSE 16.1 mph - N/A   Clear
11:16 PM 12.2 °F -2.5 °F 8.6 °F 85% 29.05 in 10.0 mi SSE 12.7 mph - N/A   Clear
11:36 PM 12.2 °F -1.8 °F 8.6 °F 85% 29.05 in 10.0 mi South 11.5 mph - N/A   Clear
11:56 PM 15.8 °F 2.1 °F 10.4 °F 79% 29.05 in 10.0 mi SSE 12.7 mph - N/A   Partly Cloudy